User: anonymous   Login
Location: PACMO
(41.3967°N, 90.3760°W)
Time: 15:42:10
(UTC-05:00)
Language:

BREEZE-M DEB (TANK) - Orbit

View from above orbital plane
View from above orbital plane
View from above satellite
View from above satellite

Ground track
Ground track

The orbit data is extracted from the following two-line orbital elements,

1 31863U 07032B   16270.10101420  .00000097  00000-0  15561-3 0  9995
2 31863  45.9072 205.1866 4977241 135.7481 277.0630  5.51992084184945
Epoch (UTC): 26 September 2016 02:25:27
Eccentricity: 0.4977241
inclination: 45.9072°
perigee height: 415 km
apogee height: 13877 km
right ascension of ascending node: 205.1866°
argument of perigee: 135.7481°
revolutions per day: 5.51992084
mean anomaly at epoch: 277.0630°
orbit number at epoch: 18494

The dashed part of the orbit path shows where the satellite is in the earth's shadow,  

DLR